Year,Month,Day,Hour,Minute,Value (Times are PST for temperature in C)
2008,09,23,00,00,7.20
2008,09,23,00,01,7.20
2008,09,23,00,02,7.20
2008,09,23,00,03,7.20
2008,09,23,00,04,7.10
2008,09,23,00,05,7.10
2008,09,23,00,06,7.00
2008,09,23,00,07,7.00
2008,09,23,00,08,7.00
2008,09,23,00,09,6.90
2008,09,23,00,10,6.90
2008,09,23,00,11,6.90
2008,09,23,00,12,6.80
2008,09,23,00,13,6.80
2008,09,23,00,14,6.80
2008,09,23,00,15,6.80
2008,09,23,00,16,6.80
2008,09,23,00,17,6.80
2008,09,23,00,18,6.70
2008,09,23,00,19,6.70
2008,09,23,00,20,6.70
2008,09,23,00,21,6.70
2008,09,23,00,22,6.60
2008,09,23,00,23,6.60
2008,09,23,00,24,6.60
2008,09,23,00,25,6.50
2008,09,23,00,26,6.40
2008,09,23,00,27,6.40
2008,09,23,00,28,6.40
2008,09,23,00,29,6.30
2008,09,23,00,30,6.30
2008,09,23,00,31,6.30
2008,09,23,00,32,6.20
2008,09,23,00,33,6.10
2008,09,23,00,34,6.00
2008,09,23,00,35,6.00
2008,09,23,00,36,5.90
2008,09,23,00,37,5.90
2008,09,23,00,38,5.80
2008,09,23,00,39,5.80
2008,09,23,00,40,5.80
2008,09,23,00,41,5.70
2008,09,23,00,42,5.70
2008,09,23,00,43,5.70
2008,09,23,00,44,5.70
2008,09,23,00,45,5.70
2008,09,23,00,46,5.70
2008,09,23,00,47,5.70
2008,09,23,00,48,5.70
2008,09,23,00,49,5.70
2008,09,23,00,50,5.70
2008,09,23,00,51,5.60
2008,09,23,00,52,5.60
2008,09,23,00,53,5.60
2008,09,23,00,54,5.60
2008,09,23,00,55,5.60
2008,09,23,00,56,5.50
2008,09,23,00,57,5.50
2008,09,23,00,58,5.50
2008,09,23,00,59,5.50
2008,09,23,01,00,5.50
2008,09,23,01,01,5.50
2008,09,23,01,02,5.50
2008,09,23,01,03,5.50
2008,09,23,01,04,5.50
2008,09,23,01,05,5.50
2008,09,23,01,06,5.50
2008,09,23,01,07,5.50
2008,09,23,01,08,5.50
2008,09,23,01,09,5.40
2008,09,23,01,10,5.40
2008,09,23,01,11,5.40
2008,09,23,01,12,5.40
2008,09,23,01,13,5.40
2008,09,23,01,14,5.40
2008,09,23,01,15,5.30
2008,09,23,01,16,5.30
2008,09,23,01,17,5.30
2008,09,23,01,18,5.30
2008,09,23,01,19,5.30
2008,09,23,01,20,5.30
2008,09,23,01,21,5.20
2008,09,23,01,22,5.20
2008,09,23,01,23,5.20
2008,09,23,01,24,5.20
2008,09,23,01,25,5.20
2008,09,23,01,26,5.10
2008,09,23,01,27,5.10
2008,09,23,01,28,5.10
2008,09,23,01,29,5.10
2008,09,23,01,30,5.10
2008,09,23,01,31,5.10
2008,09,23,01,32,5.10
2008,09,23,01,33,5.10
2008,09,23,01,34,5.10
2008,09,23,01,35,5.10
2008,09,23,01,36,5.10
2008,09,23,01,37,5.00
2008,09,23,01,38,5.00
2008,09,23,01,39,5.00
2008,09,23,01,40,5.00
2008,09,23,01,41,4.90
2008,09,23,01,42,4.90
2008,09,23,01,43,4.90
2008,09,23,01,44,4.80
2008,09,23,01,45,4.80
2008,09,23,01,46,4.80
2008,09,23,01,47,4.80
2008,09,23,01,48,4.70
2008,09,23,01,49,4.70
2008,09,23,01,50,4.70
2008,09,23,01,51,4.70
2008,09,23,01,52,4.70
2008,09,23,01,53,4.70
2008,09,23,01,54,4.70
2008,09,23,01,55,4.70
2008,09,23,01,56,4.70
2008,09,23,01,57,4.70
2008,09,23,01,58,4.70
2008,09,23,01,59,4.60
2008,09,23,02,00,4.60
2008,09,23,02,01,4.60
2008,09,23,02,02,4.60
2008,09,23,02,03,4.60
2008,09,23,02,04,4.60
2008,09,23,02,05,4.60
2008,09,23,02,06,4.60
2008,09,23,02,07,4.60
2008,09,23,02,08,4.60
2008,09,23,02,09,4.60
2008,09,23,02,10,4.60
2008,09,23,02,11,4.60
2008,09,23,02,12,4.60
2008,09,23,02,13,4.60
2008,09,23,02,14,4.60
2008,09,23,02,15,4.60
2008,09,23,02,16,4.60
2008,09,23,02,17,4.60
2008,09,23,02,18,4.60
2008,09,23,02,19,4.60
2008,09,23,02,20,4.60
2008,09,23,02,21,4.60
2008,09,23,02,22,4.60
2008,09,23,02,23,4.60
2008,09,23,02,24,4.50
2008,09,23,02,25,4.50
2008,09,23,02,26,4.40
2008,09,23,02,27,4.40
2008,09,23,02,28,4.30
2008,09,23,02,29,4.30
2008,09,23,02,30,4.20
2008,09,23,02,31,4.20
2008,09,23,02,32,4.20
2008,09,23,02,33,4.10
2008,09,23,02,34,4.10
2008,09,23,02,35,4.10
2008,09,23,02,36,4.10
2008,09,23,02,37,4.10
2008,09,23,02,38,4.00
2008,09,23,02,39,4.00
2008,09,23,02,40,4.00
2008,09,23,02,41,4.00
2008,09,23,02,42,4.00
2008,09,23,02,43,4.00
2008,09,23,02,44,4.00
2008,09,23,02,45,4.00
2008,09,23,02,46,4.00
2008,09,23,02,47,4.00
2008,09,23,02,48,4.00
2008,09,23,02,49,4.00
2008,09,23,02,50,4.00
2008,09,23,02,51,4.00
2008,09,23,02,52,4.00
2008,09,23,02,53,4.00
2008,09,23,02,54,4.00
2008,09,23,02,55,4.00
2008,09,23,02,56,4.10
2008,09,23,02,57,4.10
2008,09,23,02,58,4.10
2008,09,23,02,59,4.10
2008,09,23,03,00,4.10
2008,09,23,03,01,4.00
2008,09,23,03,02,4.00
2008,09,23,03,03,4.00
2008,09,23,03,04,3.90
2008,09,23,03,05,3.90
2008,09,23,03,06,3.90
2008,09,23,03,07,3.90
2008,09,23,03,08,3.90
2008,09,23,03,09,3.90
2008,09,23,03,10,3.80
2008,09,23,03,11,3.80
2008,09,23,03,12,3.80
2008,09,23,03,13,3.80
2008,09,23,03,14,3.80
2008,09,23,03,15,3.80
2008,09,23,03,16,3.80
2008,09,23,03,17,3.80
2008,09,23,03,18,3.80
2008,09,23,03,19,3.80
2008,09,23,03,20,3.80
2008,09,23,03,21,3.80
2008,09,23,03,22,3.70
2008,09,23,03,23,3.70
2008,09,23,03,24,3.70
2008,09,23,03,25,3.60
2008,09,23,03,26,3.60
2008,09,23,03,27,3.60
2008,09,23,03,28,3.50
2008,09,23,03,29,3.50
2008,09,23,03,30,3.50
2008,09,23,03,31,3.50
2008,09,23,03,32,3.40
2008,09,23,03,33,3.40
2008,09,23,03,34,3.40
2008,09,23,03,35,3.40
2008,09,23,03,36,3.40
2008,09,23,03,37,3.40
2008,09,23,03,38,3.40
2008,09,23,03,39,3.40
2008,09,23,03,40,3.40
2008,09,23,03,41,3.40
2008,09,23,03,42,3.50
2008,09,23,03,43,3.50
2008,09,23,03,44,3.50
2008,09,23,03,45,3.50
2008,09,23,03,46,3.50
2008,09,23,03,47,3.50
2008,09,23,03,48,3.50
2008,09,23,03,49,3.50
2008,09,23,03,50,3.50
2008,09,23,03,51,3.50
2008,09,23,03,52,3.50
2008,09,23,03,53,3.50
2008,09,23,03,54,3.50
2008,09,23,03,55,3.50
2008,09,23,03,56,3.50
2008,09,23,03,57,3.50
2008,09,23,03,58,3.40
2008,09,23,03,59,3.40
2008,09,23,04,00,3.40
2008,09,23,04,01,3.40
2008,09,23,04,02,3.40
2008,09,23,04,03,3.40
2008,09,23,04,04,3.40
2008,09,23,04,05,3.40
2008,09,23,04,06,3.40
2008,09,23,04,07,3.40
2008,09,23,04,08,3.40
2008,09,23,04,09,3.30
2008,09,23,04,10,3.30
2008,09,23,04,11,3.30
2008,09,23,04,12,3.30
2008,09,23,04,13,3.30
2008,09,23,04,14,3.40
2008,09,23,04,15,3.40
2008,09,23,04,16,3.40
2008,09,23,04,17,3.30
2008,09,23,04,18,3.30
2008,09,23,04,19,3.30
2008,09,23,04,20,3.30
2008,09,23,04,21,3.20
2008,09,23,04,22,3.20
2008,09,23,04,23,3.20
2008,09,23,04,24,3.20
2008,09,23,04,25,3.10
2008,09,23,04,26,3.10
2008,09,23,04,27,3.10
2008,09,23,04,28,3.10
2008,09,23,04,29,3.10
2008,09,23,04,30,3.10
2008,09,23,04,31,3.00
2008,09,23,04,32,3.00
2008,09,23,04,33,3.00
2008,09,23,04,34,3.00
2008,09,23,04,35,3.00
2008,09,23,04,36,3.10
2008,09,23,04,37,3.10
2008,09,23,04,38,3.10
2008,09,23,04,39,3.10
2008,09,23,04,40,3.10
2008,09,23,04,41,3.10
2008,09,23,04,42,3.10
2008,09,23,04,43,3.10
2008,09,23,04,44,3.10
2008,09,23,04,45,3.10
2008,09,23,04,46,3.10
2008,09,23,04,47,3.10
2008,09,23,04,48,3.10
2008,09,23,04,49,3.10
2008,09,23,04,50,3.10
2008,09,23,04,51,3.10
2008,09,23,04,52,3.10
2008,09,23,04,53,3.10
2008,09,23,04,54,3.10
2008,09,23,04,55,3.10
2008,09,23,04,56,3.10
2008,09,23,04,57,3.10
2008,09,23,04,58,3.10
2008,09,23,04,59,3.10
2008,09,23,05,00,3.00
2008,09,23,05,01,3.00
2008,09,23,05,02,3.00
2008,09,23,05,03,3.00
2008,09,23,05,04,2.90
2008,09,23,05,05,2.90
2008,09,23,05,06,2.90
2008,09,23,05,07,2.80
2008,09,23,05,08,2.80
2008,09,23,05,09,2.80
2008,09,23,05,10,2.80
2008,09,23,05,11,2.80
2008,09,23,05,12,2.80
2008,09,23,05,13,2.80
2008,09,23,05,14,2.80
2008,09,23,05,15,2.80
2008,09,23,05,16,2.80
2008,09,23,05,17,2.80
2008,09,23,05,18,2.80
2008,09,23,05,19,2.80
2008,09,23,05,20,2.80
2008,09,23,05,21,2.80
2008,09,23,05,22,2.80
2008,09,23,05,23,2.80
2008,09,23,05,24,2.90
2008,09,23,05,25,2.80
2008,09,23,05,26,2.80
2008,09,23,05,27,2.80
2008,09,23,05,28,2.80
2008,09,23,05,29,2.80
2008,09,23,05,30,2.70
2008,09,23,05,31,2.70
2008,09,23,05,32,2.70
2008,09,23,05,33,2.70
2008,09,23,05,34,2.70
2008,09,23,05,35,2.70
2008,09,23,05,36,2.70
2008,09,23,05,37,2.70
2008,09,23,05,38,2.70
2008,09,23,05,39,2.70
2008,09,23,05,40,2.70
2008,09,23,05,41,2.70
2008,09,23,05,42,2.70
2008,09,23,05,43,2.70
2008,09,23,05,44,2.70
2008,09,23,05,45,2.70
2008,09,23,05,46,2.70
2008,09,23,05,47,2.70
2008,09,23,05,48,2.70
2008,09,23,05,49,2.70
2008,09,23,05,50,2.70
2008,09,23,05,51,2.70
2008,09,23,05,52,2.70
2008,09,23,05,53,2.70
2008,09,23,05,54,2.70
2008,09,23,05,55,2.70
2008,09,23,05,56,2.60
2008,09,23,05,57,2.60
2008,09,23,05,58,2.60
2008,09,23,05,59,2.60
2008,09,23,06,00,2.50
2008,09,23,06,01,2.50
2008,09,23,06,02,2.50
2008,09,23,06,03,2.40
2008,09,23,06,04,2.40
2008,09,23,06,05,2.40
2008,09,23,06,06,2.40
2008,09,23,06,07,2.40
2008,09,23,06,08,2.30
2008,09,23,06,09,2.30
2008,09,23,06,10,2.30
2008,09,23,06,11,2.30
2008,09,23,06,12,2.30
2008,09,23,06,13,2.30
2008,09,23,06,14,2.30
2008,09,23,06,15,2.20
2008,09,23,06,16,2.20
2008,09,23,06,17,2.30
2008,09,23,06,18,2.30
2008,09,23,06,19,2.30
2008,09,23,06,20,2.30
2008,09,23,06,21,2.30
2008,09,23,06,22,2.30
2008,09,23,06,23,2.40
2008,09,23,06,24,2.40
2008,09,23,06,25,2.40
2008,09,23,06,26,2.40
2008,09,23,06,27,2.40
2008,09,23,06,28,2.40
2008,09,23,06,29,2.40
2008,09,23,06,30,2.30
2008,09,23,06,31,2.30
2008,09,23,06,32,2.30
2008,09,23,06,33,2.30
2008,09,23,06,34,2.40
2008,09,23,06,35,2.40
2008,09,23,06,36,2.40
2008,09,23,06,37,2.50
2008,09,23,06,38,2.50
2008,09,23,06,39,2.50
2008,09,23,06,40,2.50
2008,09,23,06,41,2.50
2008,09,23,06,42,2.50
2008,09,23,06,43,2.40
2008,09,23,06,44,2.40
2008,09,23,06,45,2.40
2008,09,23,06,46,2.40
2008,09,23,06,47,2.40
2008,09,23,06,48,2.40
2008,09,23,06,49,2.40
2008,09,23,06,50,2.40
2008,09,23,06,51,2.50
2008,09,23,06,52,2.50
2008,09,23,06,53,2.50
2008,09,23,06,54,2.50
2008,09,23,06,55,2.50
2008,09,23,06,56,2.50
2008,09,23,06,57,2.50
2008,09,23,06,58,2.50
2008,09,23,06,59,2.50
2008,09,23,07,00,2.40
2008,09,23,07,01,2.40
2008,09,23,07,02,2.40
2008,09,23,07,03,2.40
2008,09,23,07,04,2.40
2008,09,23,07,05,2.30
2008,09,23,07,06,2.30
2008,09,23,07,07,2.30
2008,09,23,07,08,2.30
2008,09,23,07,09,2.30
2008,09,23,07,10,2.30
2008,09,23,07,11,2.30
2008,09,23,07,12,2.30
2008,09,23,07,13,2.30
2008,09,23,07,14,2.40
2008,09,23,07,15,2.40
2008,09,23,07,16,2.40
2008,09,23,07,17,2.40
2008,09,23,07,18,2.40
2008,09,23,07,19,2.40
2008,09,23,07,20,2.40
2008,09,23,07,21,2.50
2008,09,23,07,22,2.50
2008,09,23,07,23,2.50
2008,09,23,07,24,2.60
2008,09,23,07,25,2.60
2008,09,23,07,26,2.60
2008,09,23,07,27,2.70
2008,09,23,07,28,2.70
2008,09,23,07,29,2.70
2008,09,23,07,30,2.70
2008,09,23,07,31,2.80
2008,09,23,07,32,2.80
2008,09,23,07,33,2.90
2008,09,23,07,34,2.90
2008,09,23,07,35,2.90
2008,09,23,07,36,3.00
2008,09,23,07,37,3.10
2008,09,23,07,38,3.20
2008,09,23,07,39,3.20
2008,09,23,07,40,3.20
2008,09,23,07,41,3.20
2008,09,23,07,42,3.30
2008,09,23,07,43,3.40
2008,09,23,07,44,3.40
2008,09,23,07,45,3.50
2008,09,23,07,46,3.60
2008,09,23,07,47,3.60
2008,09,23,07,48,3.70
2008,09,23,07,49,3.70
2008,09,23,07,50,3.70
2008,09,23,07,51,3.80
2008,09,23,07,52,3.80
2008,09,23,07,53,3.80
2008,09,23,07,54,3.90
2008,09,23,07,55,3.90
2008,09,23,07,56,3.90
2008,09,23,07,57,3.90
2008,09,23,07,58,3.90
2008,09,23,07,59,3.90
2008,09,23,08,00,4.00
2008,09,23,08,01,4.00
2008,09,23,08,02,4.00
2008,09,23,08,03,4.10
2008,09,23,08,04,4.10
2008,09,23,08,05,4.10
2008,09,23,08,06,4.10
2008,09,23,08,07,4.10
2008,09,23,08,08,4.10
2008,09,23,08,09,4.10
2008,09,23,08,10,4.20
2008,09,23,08,11,4.20
2008,09,23,08,12,4.20
2008,09,23,08,13,4.20
2008,09,23,08,14,4.30
2008,09,23,08,15,4.30
2008,09,23,08,16,4.30
2008,09,23,08,17,4.40
2008,09,23,08,18,4.40
2008,09,23,08,19,4.50
2008,09,23,08,20,4.50
2008,09,23,08,21,4.60
2008,09,23,08,22,4.60
2008,09,23,08,23,4.70
2008,09,23,08,24,4.70
2008,09,23,08,25,4.70
2008,09,23,08,26,4.80
2008,09,23,08,27,4.90
2008,09,23,08,28,4.90
2008,09,23,08,29,5.00
2008,09,23,08,30,5.10
2008,09,23,08,31,5.10
2008,09,23,08,32,5.20
2008,09,23,08,33,5.20
2008,09,23,08,34,5.30
2008,09,23,08,35,5.30
2008,09,23,08,36,5.40
2008,09,23,08,37,5.50
2008,09,23,08,38,5.60
2008,09,23,08,39,5.80
2008,09,23,08,40,6.00
2008,09,23,08,41,6.20
2008,09,23,08,42,6.40
2008,09,23,08,43,6.50
2008,09,23,08,44,6.60
2008,09,23,08,45,6.70
2008,09,23,08,46,6.80
2008,09,23,08,47,6.90
2008,09,23,08,48,7.00
2008,09,23,08,49,7.10
2008,09,23,08,50,7.20
2008,09,23,08,51,7.30
2008,09,23,08,52,7.30
2008,09,23,08,53,7.40
2008,09,23,08,54,7.50
2008,09,23,08,55,7.60
2008,09,23,08,56,7.60
2008,09,23,08,57,7.70
2008,09,23,08,58,7.70
2008,09,23,08,59,7.80
2008,09,23,09,00,7.80
2008,09,23,09,01,7.90
2008,09,23,09,02,7.90
2008,09,23,09,03,8.00
2008,09,23,09,04,8.10
2008,09,23,09,05,8.10
2008,09,23,09,06,8.20
2008,09,23,09,07,8.20
2008,09,23,09,08,8.20
2008,09,23,09,09,8.20
2008,09,23,09,10,8.20
2008,09,23,09,11,8.20
2008,09,23,09,12,8.20
2008,09,23,09,13,8.20
2008,09,23,09,14,8.30
2008,09,23,09,15,8.30
2008,09,23,09,16,8.30
2008,09,23,09,17,8.30
2008,09,23,09,18,8.30
2008,09,23,09,19,8.30
2008,09,23,09,20,8.40
2008,09,23,09,21,8.40
2008,09,23,09,22,8.40
2008,09,23,09,23,8.40
2008,09,23,09,24,8.50
2008,09,23,09,25,8.50
2008,09,23,09,26,8.50
2008,09,23,09,27,8.60
2008,09,23,09,28,8.60
2008,09,23,09,29,8.60
2008,09,23,09,30,8.70
2008,09,23,09,31,8.70
2008,09,23,09,32,8.70
2008,09,23,09,33,8.80
2008,09,23,09,34,8.80
2008,09,23,09,35,8.80
2008,09,23,09,36,8.90
2008,09,23,09,37,8.90
2008,09,23,09,38,8.90
2008,09,23,09,39,8.90
2008,09,23,09,40,8.90
2008,09,23,09,41,9.00
2008,09,23,09,42,9.10
2008,09,23,09,43,9.10
2008,09,23,09,44,9.20
2008,09,23,09,45,9.20
2008,09,23,09,46,9.20
2008,09,23,09,47,9.30
2008,09,23,09,48,9.30
2008,09,23,09,49,9.40
2008,09,23,09,50,9.40
2008,09,23,09,51,9.50
2008,09,23,09,52,9.50
2008,09,23,09,53,9.60
2008,09,23,09,54,9.60
2008,09,23,09,55,9.70
2008,09,23,09,56,9.80
2008,09,23,09,57,9.80
2008,09,23,09,58,9.80
2008,09,23,09,59,9.80
2008,09,23,10,00,9.80
2008,09,23,10,01,9.90
2008,09,23,10,02,9.90
2008,09,23,10,03,9.90
2008,09,23,10,04,9.90
2008,09,23,10,05,10.00
2008,09,23,10,06,10.00
2008,09,23,10,07,9.90
2008,09,23,10,08,9.90
2008,09,23,10,09,9.90
2008,09,23,10,10,9.90
2008,09,23,10,11,9.90
2008,09,23,10,12,10.00
2008,09,23,10,13,10.00
2008,09,23,10,14,10.10
2008,09,23,10,15,10.20
2008,09,23,10,16,10.30
2008,09,23,10,17,10.30
2008,09,23,10,18,10.40
2008,09,23,10,19,10.50
2008,09,23,10,20,10.50
2008,09,23,10,21,10.60
2008,09,23,10,22,10.60
2008,09,23,10,23,10.60
2008,09,23,10,24,10.70
2008,09,23,10,25,10.80
2008,09,23,10,26,10.80
2008,09,23,10,27,10.80
2008,09,23,10,28,10.80
2008,09,23,10,29,10.80
2008,09,23,10,30,10.80
2008,09,23,10,31,10.90
2008,09,23,10,32,11.00
2008,09,23,10,33,11.20
2008,09,23,10,34,11.40
2008,09,23,10,35,11.60
2008,09,23,10,36,11.80
2008,09,23,10,37,11.90
2008,09,23,10,38,11.90
2008,09,23,10,39,12.00
2008,09,23,10,40,12.00
2008,09,23,10,41,12.00
2008,09,23,10,42,12.00
2008,09,23,10,43,12.00
2008,09,23,10,44,11.80
2008,09,23,10,45,11.70
2008,09,23,10,46,11.70
2008,09,23,10,47,11.70
2008,09,23,10,48,11.70
2008,09,23,10,49,11.80
2008,09,23,10,50,11.80
2008,09,23,10,51,11.90
2008,09,23,10,52,12.00
2008,09,23,10,53,12.10
2008,09,23,10,54,12.10
2008,09,23,10,55,12.20
2008,09,23,10,56,12.20
2008,09,23,10,57,12.30
2008,09,23,10,58,12.40
2008,09,23,10,59,12.40
2008,09,23,11,00,12.50
2008,09,23,11,01,12.60
2008,09,23,11,02,12.70
2008,09,23,11,03,12.80
2008,09,23,11,04,12.80
2008,09,23,11,05,12.80
2008,09,23,11,06,12.80
2008,09,23,11,07,12.70
2008,09,23,11,08,12.70
2008,09,23,11,09,12.70
2008,09,23,11,10,12.60
2008,09,23,11,11,12.60
2008,09,23,11,12,12.50
2008,09,23,11,13,12.40
2008,09,23,11,14,12.40
2008,09,23,11,15,12.30
2008,09,23,11,16,12.30
2008,09,23,11,17,12.20
2008,09,23,11,18,12.20
2008,09,23,11,19,12.20
2008,09,23,11,20,12.20
2008,09,23,11,21,12.20
2008,09,23,11,22,12.20
2008,09,23,11,23,12.30
2008,09,23,11,24,12.40
2008,09,23,11,25,12.50
2008,09,23,11,26,12.60
2008,09,23,11,27,12.70
2008,09,23,11,28,12.80
2008,09,23,11,29,12.80
2008,09,23,11,30,12.90
2008,09,23,11,31,12.90
2008,09,23,11,32,12.90
2008,09,23,11,33,12.90
2008,09,23,11,34,13.00
2008,09,23,11,35,13.10
2008,09,23,11,36,13.10
2008,09,23,11,37,13.20
2008,09,23,11,38,13.20
2008,09,23,11,39,13.10
2008,09,23,11,40,13.10
2008,09,23,11,41,13.00
2008,09,23,11,42,12.80
2008,09,23,11,43,12.70
2008,09,23,11,44,12.60
2008,09,23,11,45,12.60
2008,09,23,11,46,12.50
2008,09,23,11,47,12.40
2008,09,23,11,48,12.30
2008,09,23,11,49,12.20
2008,09,23,11,50,12.20
2008,09,23,11,51,12.20
2008,09,23,11,52,12.30
2008,09,23,11,53,12.30
2008,09,23,11,54,12.30
2008,09,23,11,55,12.40
2008,09,23,11,56,12.40
2008,09,23,11,57,12.50
2008,09,23,11,58,12.60
2008,09,23,11,59,12.70
2008,09,23,12,00,12.70
2008,09,23,12,01,12.70
2008,09,23,12,02,12.70
2008,09,23,12,03,12.60
2008,09,23,12,04,12.50
2008,09,23,12,05,12.40
2008,09,23,12,06,12.30
2008,09,23,12,07,12.20
2008,09,23,12,08,12.30
2008,09,23,12,09,12.30
2008,09,23,12,10,12.30
2008,09,23,12,11,12.20
2008,09,23,12,12,12.10
2008,09,23,12,13,12.00
2008,09,23,12,14,11.90
2008,09,23,12,15,11.90
2008,09,23,12,16,11.90
2008,09,23,12,17,12.10
2008,09,23,12,18,12.20
2008,09,23,12,19,12.40
2008,09,23,12,20,12.50
2008,09,23,12,21,12.60
2008,09,23,12,22,12.70
2008,09,23,12,23,12.70
2008,09,23,12,24,12.80
2008,09,23,12,25,12.80
2008,09,23,12,26,12.80
2008,09,23,12,27,12.80
2008,09,23,12,28,12.80
2008,09,23,12,29,12.70
2008,09,23,12,30,12.70
2008,09,23,12,31,12.60
2008,09,23,12,32,12.60
2008,09,23,12,33,12.60
2008,09,23,12,34,12.70
2008,09,23,12,35,12.60
2008,09,23,12,36,12.60
2008,09,23,12,37,12.50
2008,09,23,12,38,12.40
2008,09,23,12,39,12.30
2008,09,23,12,40,12.30
2008,09,23,12,41,12.40
2008,09,23,12,42,12.40
2008,09,23,12,43,12.60
2008,09,23,12,44,12.80
2008,09,23,12,45,12.80
2008,09,23,12,46,12.90
2008,09,23,12,47,12.90
2008,09,23,12,48,12.90
2008,09,23,12,49,12.90
2008,09,23,12,50,12.90
2008,09,23,12,51,12.80
2008,09,23,12,52,12.70
2008,09,23,12,53,12.60
2008,09,23,12,54,12.60
2008,09,23,12,55,12.50
2008,09,23,12,56,12.40
2008,09,23,12,57,12.40
2008,09,23,12,58,12.40
2008,09,23,12,59,12.40
2008,09,23,13,00,12.40
2008,09,23,13,01,12.50
2008,09,23,13,02,12.50
2008,09,23,13,03,12.60
2008,09,23,13,04,12.70
2008,09,23,13,05,12.90
2008,09,23,13,06,12.90
2008,09,23,13,07,12.90
2008,09,23,13,08,12.80
2008,09,23,13,09,12.80
2008,09,23,13,10,12.70
2008,09,23,13,11,12.70
2008,09,23,13,12,12.60
2008,09,23,13,13,12.60
2008,09,23,13,14,12.70
2008,09,23,13,15,12.70
2008,09,23,13,16,12.80
2008,09,23,13,17,12.90
2008,09,23,13,18,13.00
2008,09,23,13,19,13.00
2008,09,23,13,20,13.10
2008,09,23,13,21,13.10
2008,09,23,13,22,13.10
2008,09,23,13,23,13.10
2008,09,23,13,24,13.10
2008,09,23,13,25,13.10
2008,09,23,13,26,13.10
2008,09,23,13,27,13.10
2008,09,23,13,28,13.10
2008,09,23,13,29,13.20
2008,09,23,13,30,13.30
2008,09,23,13,31,13.30
2008,09,23,13,32,13.40
2008,09,23,13,33,13.50
2008,09,23,13,34,13.60
2008,09,23,13,35,13.70
2008,09,23,13,36,13.60
2008,09,23,13,37,13.50
2008,09,23,13,38,13.40
2008,09,23,13,39,13.40
2008,09,23,13,40,13.40
2008,09,23,13,41,13.40
2008,09,23,13,42,13.50
2008,09,23,13,43,13.50
2008,09,23,13,44,13.60
2008,09,23,13,45,13.60
2008,09,23,13,46,13.70
2008,09,23,13,47,13.70
2008,09,23,13,48,13.70
2008,09,23,13,49,13.70
2008,09,23,13,50,13.70
2008,09,23,13,51,13.70
2008,09,23,13,52,13.60
2008,09,23,13,53,13.60
2008,09,23,13,54,13.50
2008,09,23,13,55,13.50
2008,09,23,13,56,13.60
2008,09,23,13,57,13.70
2008,09,23,13,58,13.70
2008,09,23,13,59,13.80
2008,09,23,14,00,13.80
2008,09,23,14,01,13.90
2008,09,23,14,02,13.80
2008,09,23,14,03,13.80
2008,09,23,14,04,13.80
2008,09,23,14,05,13.80
2008,09,23,14,06,13.90
2008,09,23,14,07,13.90
2008,09,23,14,08,14.00
2008,09,23,14,09,14.00
2008,09,23,14,10,14.00
2008,09,23,14,11,14.10
2008,09,23,14,12,14.00
2008,09,23,14,13,13.90
2008,09,23,14,14,13.90
2008,09,23,14,15,13.90
2008,09,23,14,16,14.00
2008,09,23,14,17,14.10
2008,09,23,14,18,14.10
2008,09,23,14,19,14.20
2008,09,23,14,20,14.20
2008,09,23,14,21,14.30
2008,09,23,14,22,14.30
2008,09,23,14,23,14.30
2008,09,23,14,24,14.20
2008,09,23,14,25,14.10
2008,09,23,14,26,14.00
2008,09,23,14,27,14.00
2008,09,23,14,28,13.90
2008,09,23,14,29,13.80
2008,09,23,14,30,13.70
2008,09,23,14,31,13.60
2008,09,23,14,32,13.60
2008,09,23,14,33,13.60
2008,09,23,14,34,13.50
2008,09,23,14,35,13.50
2008,09,23,14,36,13.50
2008,09,23,14,37,13.50
2008,09,23,14,38,13.60
2008,09,23,14,39,13.70
2008,09,23,14,40,13.80
2008,09,23,14,41,13.80
2008,09,23,14,42,13.80
2008,09,23,14,43,13.90
2008,09,23,14,44,14.00
2008,09,23,14,45,14.00
2008,09,23,14,46,14.00
2008,09,23,14,47,14.00
2008,09,23,14,48,14.00
2008,09,23,14,49,14.00
2008,09,23,14,50,14.00
2008,09,23,14,51,14.00
2008,09,23,14,52,14.00
2008,09,23,14,53,14.00
2008,09,23,14,54,14.00
2008,09,23,14,55,14.00
2008,09,23,14,56,14.00
2008,09,23,14,57,14.00
2008,09,23,14,58,13.90
2008,09,23,14,59,13.90
2008,09,23,15,00,13.90
2008,09,23,15,01,13.90
2008,09,23,15,02,14.00
2008,09,23,15,03,14.10
2008,09,23,15,04,14.10
2008,09,23,15,05,14.10
2008,09,23,15,06,14.10
2008,09,23,15,07,14.00
2008,09,23,15,08,14.00
2008,09,23,15,09,14.00
2008,09,23,15,10,14.10
2008,09,23,15,11,14.00
2008,09,23,15,12,13.90
2008,09,23,15,13,13.90
2008,09,23,15,14,13.80
2008,09,23,15,15,13.70
2008,09,23,15,16,13.70
2008,09,23,15,17,13.60
2008,09,23,15,18,13.60
2008,09,23,15,19,13.60
2008,09,23,15,20,13.60
2008,09,23,15,21,13.60
2008,09,23,15,22,13.60
2008,09,23,15,23,13.50
2008,09,23,15,24,13.50
2008,09,23,15,25,13.40
2008,09,23,15,26,13.40
2008,09,23,15,27,13.40
2008,09,23,15,28,13.40
2008,09,23,15,29,13.40
2008,09,23,15,30,13.40
2008,09,23,15,31,13.40
2008,09,23,15,32,13.40
2008,09,23,15,33,13.50
2008,09,23,15,34,13.50
2008,09,23,15,35,13.60
2008,09,23,15,36,13.60
2008,09,23,15,37,13.70
2008,09,23,15,38,13.70
2008,09,23,15,39,13.80
2008,09,23,15,40,13.80
2008,09,23,15,41,13.80
2008,09,23,15,42,13.70
2008,09,23,15,43,13.70
2008,09,23,15,44,13.70
2008,09,23,15,45,13.70
2008,09,23,15,46,13.70
2008,09,23,15,47,13.70
2008,09,23,15,48,13.60
2008,09,23,15,49,13.60
2008,09,23,15,50,13.60
2008,09,23,15,51,13.50
2008,09,23,15,52,13.60
2008,09,23,15,53,13.60
2008,09,23,15,54,13.60
2008,09,23,15,55,13.60
2008,09,23,15,56,13.60
2008,09,23,15,57,13.50
2008,09,23,15,58,13.40
2008,09,23,15,59,13.40
2008,09,23,16,00,13.40
2008,09,23,16,01,13.40
2008,09,23,16,02,13.40
2008,09,23,16,03,13.40
2008,09,23,16,04,13.40
2008,09,23,16,05,13.30
2008,09,23,16,06,13.30
2008,09,23,16,07,13.30
2008,09,23,16,08,13.30
2008,09,23,16,09,13.30
2008,09,23,16,10,13.30
2008,09,23,16,11,13.30
2008,09,23,16,12,13.30
2008,09,23,16,13,13.30
2008,09,23,16,14,13.20
2008,09,23,16,15,13.30
2008,09,23,16,16,13.30
2008,09,23,16,17,13.30
2008,09,23,16,18,13.30
2008,09,23,16,19,13.30
2008,09,23,16,20,13.30
2008,09,23,16,21,13.30
2008,09,23,16,22,13.30
2008,09,23,16,23,13.30
2008,09,23,16,24,13.30
2008,09,23,16,25,13.30
2008,09,23,16,26,13.30
2008,09,23,16,27,13.30
2008,09,23,16,28,13.30
2008,09,23,16,29,13.40
2008,09,23,16,30,13.40
2008,09,23,16,31,13.40
2008,09,23,16,32,13.40
2008,09,23,16,33,13.50
2008,09,23,16,34,13.50
2008,09,23,16,35,13.50
2008,09,23,16,36,13.50
2008,09,23,16,37,13.50
2008,09,23,16,38,13.50
2008,09,23,16,39,13.50
2008,09,23,16,40,13.60
2008,09,23,16,41,13.60
2008,09,23,16,42,13.60
2008,09,23,16,43,13.70
2008,09,23,16,44,13.70
2008,09,23,16,45,13.70
2008,09,23,16,46,13.70
2008,09,23,16,47,13.70
2008,09,23,16,48,13.70
2008,09,23,16,49,13.70
2008,09,23,16,50,13.70
2008,09,23,16,51,13.70
2008,09,23,16,52,13.80
2008,09,23,16,53,13.80
2008,09,23,16,54,13.80
2008,09,23,16,55,13.80
2008,09,23,16,56,13.80
2008,09,23,16,57,13.70
2008,09,23,16,58,13.70
2008,09,23,16,59,13.70
2008,09,23,17,00,13.70
2008,09,23,17,01,13.80
2008,09,23,17,02,13.80
2008,09,23,17,03,13.80
2008,09,23,17,04,13.80
2008,09,23,17,05,13.80
2008,09,23,17,06,13.90
2008,09,23,17,07,13.90
2008,09,23,17,08,13.90
2008,09,23,17,09,13.90
2008,09,23,17,10,13.80
2008,09,23,17,11,13.80
2008,09,23,17,12,13.80
2008,09,23,17,13,13.80
2008,09,23,17,14,13.80
2008,09,23,17,15,13.80
2008,09,23,17,16,13.70
2008,09,23,17,17,13.70
2008,09,23,17,18,13.70
2008,09,23,17,19,13.60
2008,09,23,17,20,13.60
2008,09,23,17,21,13.60
2008,09,23,17,22,13.60
2008,09,23,17,23,13.50
2008,09,23,17,24,13.50
2008,09,23,17,25,13.50
2008,09,23,17,26,13.50
2008,09,23,17,27,13.50
2008,09,23,17,28,13.40
2008,09,23,17,29,13.40
2008,09,23,17,30,13.30
2008,09,23,17,31,13.30
2008,09,23,17,32,13.30
2008,09,23,17,33,13.30
2008,09,23,17,34,13.20
2008,09,23,17,35,13.30
2008,09,23,17,36,13.30
2008,09,23,17,37,13.20
2008,09,23,17,38,13.20
2008,09,23,17,39,13.20
2008,09,23,17,40,13.20
2008,09,23,17,41,13.20
2008,09,23,17,42,13.20
2008,09,23,17,43,13.20
2008,09,23,17,44,13.20
2008,09,23,17,45,13.20